CW8078 Weather Reports


Display with metric or nautical units.
time (UTC)temp
F
wind
direction
speed
MPH
gust
MPH
rain 1hr
in
rain 24hr
in
rain mn
in
humidity
%
barometer
mb
20260906161303 87 356 0.0 0.0 0.00 0.00 0.00 72 1013.3
20260906160803 87 19 0.0 0.0 0.00 0.00 0.00 72 1013.3
20260906160303 87 41 0.0 0.0 0.00 0.00 0.00 72 1013.3
20260906154802 86 9 0.0 0.0 0.00 0.00 0.00 73 1013.1
20260906154302 86 2 0.0 0.0 0.00 0.00 0.00 73 1013.2
20260906153803 86 350 0.0 0.0 0.00 0.00 0.00 74 1013.1
20260906153303 85 337 0.0 0.0 0.00 0.00 0.00 74 1013.0
20260906151303 84 172 0.0 0.0 0.00 0.00 0.00 77 1012.9
20260906150803 83 84 0.0 0.0 0.00 0.00 0.00 77 1012.9
20260906150302 83 19 0.0 1.0 0.00 0.00 0.00 77 1012.9
20260906144803 82 16 0.0 0.0 0.00 0.00 0.00 78 1013.2
20260906144302 82 9 0.0 0.0 0.00 0.00 0.00 79 1013.1
20260906143802 82 30 0.0 0.0 0.00 0.00 0.00 80 1013.2
20260906143303 82 30 0.0 0.0 0.00 0.00 0.00 80 1013.1
20260906141303 80 18 0.0 0.0 0.00 0.00 0.00 81 1013.0
20260906140803 80 19 0.0 0.0 0.00 0.00 0.00 82 1013.0
20260906140303 80 8 0.0 1.0 0.00 0.00 0.00 82 1013.0
20260906134802 79 10 0.0 0.0 0.00 0.00 0.00 84 1012.9
20260906134302 79 334 0.0 0.0 0.00 0.00 0.00 84 1012.7
20260906133802 79 334 0.0 0.0 0.00 0.00 0.00 84 1012.7
20260906133303 78 4 0.0 0.0 0.00 0.00 0.00 85 1012.7
20260906131802 78 35 0.0 0.0 0.00 0.00 0.00 87 1012.7
20260906130803 77 48 0.0 0.0 0.00 0.00 0.00 88 1012.7
20260906130303 77 43 0.0 1.0 0.00 0.00 0.00 89 1012.6
20260906124803 76 21 0.0 0.0 0.00 0.00 0.00 90 1012.6
20260906123802 76 44 0.0 0.0 0.00 0.00 0.00 90 1012.5
20260906123303 76 20 0.0 1.0 0.00 0.00 0.00 90 1012.4
20260906121803 76 5 0.0 0.0 0.00 0.00 0.00 91 1012.3
20260906121303 76 5 0.0 0.0 0.00 0.00 0.00 91 1012.2
20260906120803 76 9 0.0 0.0 0.00 0.00 0.00 91 1012.1
20260906120303 76 49 0.0 0.0 0.00 0.00 0.00 91 1012.0
20260906114803 76 0 0.0 0.0 0.00 0.00 0.00 91 1011.9
20260906113803 76 0 0.0 0.0 0.00 0.00 0.00 91 1011.9
20260906113302 76 0 0.0 0.0 0.00 0.00 0.00 91 1011.9
20260906111803 76 355 0.0 1.0 0.00 0.00 0.00 91 1011.8
20260906110803 76 14 0.0 0.0 0.00 0.00 0.00 91 1011.8
20260906110303 76 5 0.0 0.0 0.00 0.00 0.00 91 1011.7
20260906104802 77 5 0.0 0.0 0.00 0.00 0.00 91 1011.7
20260906104303 77 8 0.0 0.0 0.00 0.00 0.00 90 1011.7
20260906103802 77 33 0.0 0.0 0.00 0.00 0.00 90 1011.6
20260906103303 77 64 0.0 0.0 0.00 0.00 0.00 90 1011.6
20260906101803 77 23 0.0 0.0 0.00 0.00 0.00 90 1011.6
20260906101303 77 13 0.0 0.0 0.00 0.00 0.00 90 1011.5
20260906100303 77 33 0.0 0.0 0.00 0.00 0.00 89 1011.3
20260906094803 77 21 0.0 0.0 0.00 0.00 0.00 89 1011.2
20260906094303 77 17 0.0 0.0 0.00 0.00 0.00 88 1011.2
20260906093803 77 26 0.0 0.0 0.00 0.00 0.00 88 1011.2
20260906091803 77 5 0.0 0.0 0.00 0.00 0.00 88 1010.9
20260906090803 77 5 0.0 0.0 0.00 0.00 0.00 87 1010.8
20260906090303 77 5 0.0 0.0 0.00 0.00 0.00 87 1010.7
20260906084803 77 5 0.0 0.0 0.00 0.00 0.00 87 1010.6
20260906084303 77 5 0.0 0.0 0.00 0.00 0.00 87 1010.6
20260906083803 77 5 0.0 0.0 0.00 0.00 0.00 87 1010.5
20260906083303 77 5 0.0 0.0 0.00 0.00 0.00 86 1010.6
20260906081803 77 9 0.0 0.0 0.00 0.00 0.00 86 1010.6
20260906081303 77 9 0.0 0.0 0.00 0.00 0.00 86 1010.5
20260906080803 78 5 0.0 0.0 0.00 0.00 0.00 85 1010.4
20260906080303 78 5 0.0 0.0 0.00 0.00 0.00 85 1010.4
20260906074803 78 5 0.0 0.0 0.00 0.00 0.00 85 1010.4
20260906074303 78 5 0.0 0.0 0.00 0.00 0.00 85 1010.5
20260906073802 78 5 0.0 0.0 0.00 0.00 0.00 85 1010.5
20260906073303 78 5 0.0 0.0 0.00 0.00 0.00 85 1010.6
20260906071303 78 5 0.0 0.0 0.00 0.00 0.00 84 1010.7
20260906070803 78 5 0.0 0.0 0.00 0.00 0.00 84 1010.7
20260906070303 78 5 0.0 0.0 0.00 0.00 0.00 83 1010.7
20260906064803 78 5 0.0 0.0 0.00 0.00 0.00 83 1010.8
20260906063803 78 5 0.0 0.0 0.00 0.00 0.00 83 1010.8
20260906063303 78 5 0.0 0.0 0.00 0.00 0.00 83 1010.9
20260906061803 79 5 0.0 0.0 0.00 0.00 0.00 82 1010.8
20260906060803 79 5 0.0 0.0 0.00 0.00 0.00 81 1010.8
20260906060303 78 5 0.0 0.0 0.00 0.00 0.00 82 1010.9
20260906054803 78 5 0.0 0.0 0.00 0.00 0.00 84 1011.0
20260906054303 78 5 0.0 0.0 0.00 0.00 0.00 84 1010.9
20260906053803 78 5 0.0 0.0 0.00 0.00 0.00 83 1010.9
20260906053303 78 5 0.0 0.0 0.00 0.00 0.00 84 1010.9
20260906051803 78 5 0.0 0.0 0.00 0.00 0.00 84 1010.8
20260906051303 78 5 0.0 0.0 0.00 0.00 0.00 84 1010.9
20260906050803 78 5 0.0 0.0 0.00 0.00 0.00 84 1010.9
20260906050303 78 5 0.0 0.0 0.00 0.00 0.00 84 1010.9
20260906044803 79 5 0.0 0.0 0.00 0.00 0.00 83 1010.7
20260906044303 79 5 0.0 0.0 0.00 0.00 0.00 83 1010.7
20260906043803 79 5 0.0 0.0 0.00 0.00 0.00 83 1010.7
20260906043303 79 5 0.0 0.0 0.00 0.00 0.00 83 1010.8
20260906041803 79 5 0.0 0.0 0.00 0.00 0.00 82 1010.7
20260906041303 79 5 0.0 0.0 0.00 0.00 0.00 82 1010.7
20260906040303 79 5 0.0 0.0 0.00 0.00 0.00 82 1010.6
20260906034803 79 5 0.0 0.0 0.00 0.00 0.00 83 1010.5
20260906034303 79 5 0.0 0.0 0.00 0.00 0.00 82 1010.4
20260906033803 79 5 0.0 0.0 0.00 0.00 0.00 83 1010.3
20260906033303 79 5 0.0 0.0 0.00 0.00 0.00 82 1010.3
20260906030304 81 5 0.0 0.0 0.00 0.00 0.00 82 1010.2
20260906024803 81 5 0.0 0.0 0.00 0.00 0.00 81 1010.0
20260906024303 81 5 0.0 0.0 0.00 0.00 0.00 79 1010.0
20260906023803 81 5 0.0 0.0 0.00 0.00 0.00 80 1009.8
20260906021803 81 5 0.0 0.0 0.00 0.00 0.00 80 1009.7
20260906021303 81 5 0.0 0.0 0.00 0.00 0.00 78 1009.6
20260906020803 81 5 0.0 0.0 0.00 0.00 0.00 77 1009.5
20260906020303 82 5 0.0 0.0 0.00 0.00 0.00 77 1009.4
20260906014803 82 5 0.0 0.0 0.00 0.00 0.00 75 1009.2
20260906014303 83 5 0.0 0.0 0.00 0.00 0.00 74 1009.2
20260906013803 83 5 0.0 0.0 0.00 0.00 0.00 73 1009.2
20260906013303 83 5 0.0 0.0 0.00 0.00 0.00 73 1009.1
20260906011804 84 5 0.0 0.0 0.00 0.00 0.00 70 1009.0
20260906011303 85 5 0.0 0.0 0.00 0.00 0.00 70 1008.9
20260906010803 85 5 0.0 0.0 0.00 0.00 0.00 69 1008.8
20260906010303 85 5 0.0 0.0 0.00 0.00 0.00 69 1008.7
20260906004303 87 5 0.0 0.0 0.00 0.00 0.00 67 1008.7
20260906003803 88 5 0.0 0.0 0.00 0.00 0.00 67 1008.6
20260906003303 88 5 0.0 0.0 0.00 0.00 0.00 63 1008.7
20260906001303 89 5 0.0 0.0 0.00 0.00 0.00 60 1008.8
20260906000803 89 5 0.0 0.0 0.00 0.00 0.00 60 1008.7
20260906000304 90 5 0.0 1.0 0.00 0.00 0.00 58 1008.8
20260905234803 91 19 0.0 1.0 0.00 0.00 0.00 55 1008.8
20260905234303 91 38 0.0 5.0 0.00 0.00 0.00 55 1008.8
20260905233803 92 13 0.0 3.0 0.00 0.00 0.00 54 1008.8
20260905231303 93 5 0.0 0.0 0.00 0.00 0.00 56 1008.6
20260905230804 94 5 0.0 0.0 0.00 0.00 0.00 55 1008.6
20260905230303 94 5 0.0 1.0 0.00 0.00 0.00 53 1008.6
20260905224303 96 5 0.0 0.0 0.00 0.00 0.00 49 1008.9
20260905223804 96 5 0.0 0.0 0.00 0.00 0.00 48 1008.9
20260905223303 96 5 0.0 0.0 0.00 0.00 0.00 47 1008.8
20260905221804 97 13 0.0 0.0 0.00 0.00 0.00 48 1008.7
20260905221304 97 13 0.0 0.0 0.00 0.00 0.00 46 1008.8
20260905220803 97 8 0.0 0.0 0.00 0.00 0.00 46 1008.8
20260905220303 97 2 0.0 0.0 0.00 0.00 0.00 47 1008.8
20260905214804 97 321 0.0 0.0 0.00 0.00 0.00 49 1008.9
20260905214303 97 350 0.0 0.0 0.00 0.00 0.00 49 1008.8
20260905213803 98 358 0.0 0.0 0.00 0.00 0.00 45 1008.7
20260905213303 98 317 0.0 0.0 0.00 0.00 0.00 41 1008.8
20260905211804 98 194 0.0 0.0 0.00 0.00 0.00 45 1008.9
20260905210803 98 329 0.0 0.0 0.00 0.00 0.00 44 1008.9
20260905210304 98 329 0.0 0.0 0.00 0.00 0.00 44 1008.9
20260905203803 99 305 0.0 0.0 0.00 0.00 0.00 43 1009.3
20260905203303 99 112 0.0 0.0 0.00 0.00 0.00 44 1009.3
20260905200804 99 36 0.0 0.0 0.00 0.00 0.00 43 1009.7
20260905194803 100 4 0.0 1.0 0.00 0.00 0.00 43 1009.9
20260905193804 100 315 0.0 0.0 0.00 0.00 0.00 43 1010.0
20260905193303 99 317 0.0 0.0 0.00 0.00 0.00 44 1010.0
20260905191804 98 31 0.0 0.0 0.00 0.00 0.00 49 1010.1
20260905190803 99 339 0.0 1.0 0.00 0.00 0.00 48 1010.2
20260905190303 99 257 0.0 0.0 0.00 0.00 0.00 45 1010.2
20260905183803 101 311 0.0 0.0 0.00 0.00 0.00 45 1010.5
20260905181803 100 294 0.0 0.0 0.00 0.00 0.00 44 1010.8
20260905181304 100 7 0.0 0.0 0.00 0.00 0.00 47 1010.8
20260905180804 100 5 0.0 0.0 0.00 0.00 0.00 46 1010.9
20260905180303 100 9 0.0 1.0 0.00 0.00 0.00 46 1010.9
20260905174803 99 11 0.0 0.0 0.00 0.00 0.00 50 1011.0
20260905174303 98 355 0.0 0.0 0.00 0.00 0.00 48 1011.1
20260905171803 96 21 0.0 0.0 0.00 0.00 0.00 51 1011.3
20260905171304 96 5 0.0 0.0 0.00 0.00 0.00 55 1011.4
20260905170804 96 21 0.0 0.0 0.00 0.00 0.00 52 1011.4
20260905170307 95 8 0.0 0.0 0.00 0.00 0.00 56 1011.4
20260905164804 94 331 0.0 0.0 0.00 0.00 0.00 59 1011.5
20260905164304 93 11 0.0 0.0 0.00 0.00 0.00 58 1011.5
20260905163804 93 11 0.0 0.0 0.00 0.00 0.00 62 1011.5
20260905163303 92 11 0.0 0.0 0.00 0.00 0.00 61 1011.5